TimeEST,TemperatureF,Dew PointF,Humidity,Sea Level PressureIn,VisibilityMPH,Wind Direction,Wind SpeedMPH,Gust SpeedMPH,PrecipitationIn,Events,Conditions,WindDirDegrees,DateUTC
12:51 AM,53.1,51.1,93,30.47,5.0,South,4.6,-,N/A,,Mostly Cloudy,170,2012-11-12 05:51:00
1:51 AM,53.1,51.1,93,30.47,6.0,South,3.5,-,N/A,,Mostly Cloudy,180,2012-11-12 06:51:00
2:51 AM,51.8,51.8,100,30.46,5.0,South,4.6,-,N/A,,Mostly Cloudy,170,2012-11-12 07:51:00
3:51 AM,51.8,50.0,94,30.45,5.0,SSE,4.6,-,N/A,,Scattered Clouds,160,2012-11-12 08:51:00
4:51 AM,48.9,48.9,100,30.45,4.0,SSE,3.5,-,N/A,,Scattered Clouds,150,2012-11-12 09:51:00
5:01 AM,48.2,48.2,100,30.45,0.2,Calm,Calm,-,N/A,Fog,Fog,0,2012-11-12 10:01:00
5:16 AM,48.2,48.2,100,30.45,0.2,Calm,Calm,-,N/A,Fog,Fog,0,2012-11-12 10:16:00
5:51 AM,48.9,48.9,100,30.45,0.2,Calm,Calm,-,N/A,Fog,Fog,0,2012-11-12 10:51:00
6:36 AM,48.2,48.2,100,30.46,0.1,South,3.5,-,N/A,Fog,Fog,170,2012-11-12 11:36:00
6:51 AM,48.9,48.9,100,30.46,0.1,Calm,Calm,-,N/A,Fog,Fog,0,2012-11-12 11:51:00
7:51 AM,50.0,50.0,100,30.46,0.2,Calm,Calm,-,N/A,Fog,Fog,0,2012-11-12 12:51:00
8:22 AM,51.8,51.8,100,30.46,0.5,Variable,3.5,-,N/A,,Mostly Cloudy,0,2012-11-12 13:22:00
8:40 AM,53.6,51.8,94,30.46,0.2,Variable,4.6,-,N/A,,Mostly Cloudy,0,2012-11-12 13:40:00
8:51 AM,53.1,53.1,100,30.46,0.2,Variable,3.5,-,N/A,,Overcast,0,2012-11-12 13:51:00
9:04 AM,53.6,53.6,100,30.45,0.5,SSE,5.8,-,N/A,,Overcast,160,2012-11-12 14:04:00
9:40 AM,55.4,53.6,94,30.45,3.0,South,6.9,-,N/A,,Mostly Cloudy,180,2012-11-12 14:40:00
9:51 AM,55.9,54.0,93,30.44,3.0,South,5.8,-,N/A,,Mostly Cloudy,180,2012-11-12 14:51:00
10:06 AM,57.2,55.4,94,30.44,5.0,South,4.6,-,N/A,,Mostly Cloudy,170,2012-11-12 15:06:00
10:51 AM,61.0,55.0,81,30.42,7.0,Variable,6.9,-,N/A,,Scattered Clouds,0,2012-11-12 15:51:00
11:51 AM,64.0,55.9,75,30.39,10.0,South,11.5,-,N/A,,Mostly Cloudy,170,2012-11-12 16:51:00
12:51 PM,64.0,57.0,78,30.37,10.0,South,12.7,-,N/A,,Scattered Clouds,180,2012-11-12 17:51:00
1:51 PM,64.9,55.9,73,30.34,10.0,South,15.0,23.0,N/A,,Mostly Cloudy,170,2012-11-12 18:51:00
2:51 PM,64.0,55.0,73,30.32,10.0,SSE,20.7,25.3,N/A,,Mostly Cloudy,160,2012-11-12 19:51:00
3:51 PM,63.0,57.9,84,30.31,10.0,South,15.0,23.0,N/A,,Mostly Cloudy,180,2012-11-12 20:51:00
4:28 PM,60.8,59.0,94,30.30,10.0,South,17.3,24.2,N/A,,Mostly Cloudy,170,2012-11-12 21:28:00
4:48 PM,60.8,59.0,94,30.29,7.0,South,16.1,25.3,N/A,,Overcast,170,2012-11-12 21:48:00
4:51 PM,60.1,59.0,96,30.29,6.0,South,17.3,25.3,N/A,,Overcast,170,2012-11-12 21:51:00
5:08 PM,60.8,59.0,94,30.29,0.5,South,15.0,24.2,N/A,,Overcast,170,2012-11-12 22:08:00
5:51 PM,60.1,59.0,96,30.29,0.5,South,15.0,23.0,N/A,,Overcast,170,2012-11-12 22:51:00
6:21 PM,59.0,59.0,100,30.28,0.5,South,16.1,20.7,N/A,,Overcast,180,2012-11-12 23:21:00
6:51 PM,60.1,59.0,96,30.26,3.0,South,12.7,-,N/A,,Overcast,170,2012-11-12 23:51:00
7:00 PM,60.8,59.0,94,30.26,3.0,South,16.1,24.2,N/A,,Overcast,170,2012-11-13 00:00:00
7:51 PM,60.1,59.0,96,30.25,6.0,South,15.0,23.0,N/A,,Overcast,170,2012-11-13 00:51:00
7:58 PM,60.8,59.0,94,30.25,10.0,South,11.5,23.0,N/A,,Mostly Cloudy,180,2012-11-13 00:58:00
8:27 PM,60.8,57.2,88,30.25,10.0,South,15.0,21.9,N/A,,Mostly Cloudy,180,2012-11-13 01:27:00
8:48 PM,60.8,57.2,88,30.25,10.0,South,12.7,17.3,N/A,,Mostly Cloudy,190,2012-11-13 01:48:00
8:51 PM,61.0,57.9,90,30.25,10.0,South,9.2,-,N/A,,Mostly Cloudy,190,2012-11-13 01:51:00
9:20 PM,60.8,57.2,88,30.25,10.0,South,10.4,-,N/A,,Overcast,190,2012-11-13 02:20:00
9:31 PM,60.8,57.2,88,30.24,10.0,South,9.2,-,N/A,,Overcast,180,2012-11-13 02:31:00
9:43 PM,60.8,57.2,88,30.24,10.0,South,8.1,-,N/A,,Overcast,190,2012-11-13 02:43:00
9:51 PM,61.0,57.9,90,30.24,10.0,South,9.2,-,N/A,,Overcast,180,2012-11-13 02:51:00
9:58 PM,60.8,57.2,88,30.23,10.0,South,10.4,16.1,N/A,,Overcast,180,2012-11-13 02:58:00
10:25 PM,60.8,57.2,88,30.22,10.0,South,11.5,-,N/A,,Overcast,170,2012-11-13 03:25:00
10:51 PM,61.0,57.9,90,30.20,10.0,SSE,11.5,-,N/A,,Mostly Cloudy,160,2012-11-13 03:51:00
11:18 PM,60.8,57.2,88,30.20,10.0,South,13.8,19.6,N/A,,Overcast,170,2012-11-13 04:18:00
11:51 PM,60.1,57.9,93,30.19,10.0,South,11.5,-,N/A,,Overcast,170,2012-11-13 04:51:00